This is the latest recevied weather packets stored in our database for station/object WX4HP-13. If no packets are shown the sender has not sent any weather packets the latest 10 day(s).
| Time | Temp. | Humidity | Pressure | Rain* | Wind** | Luminosity | Snow |
|---|---|---|---|---|---|---|---|
| 1777907696 | 20.56° C | 48% | 1016.3 hPa | 0 mm | - | - | - |
| 1777907396 | 20.56° C | 50% | 1016.3 hPa | 0 mm | - | - | - |
| 1777907097 | 20° C | 50% | 1016.3 hPa | 0 mm | - | - | - |
| 1777906797 | 20° C | 49% | 1016.4 hPa | 0 mm | - | - | - |
| 1777906496 | 20° C | 49% | 1016.4 hPa | 0 mm | - | - | - |
| 1777906197 | 19.44° C | 51% | 1016.5 hPa | 0 mm | - | - | - |
| 1777905940 | 19.44° C | 52% | 1016.6 hPa | 0 mm | - | - | - |
| 1777905897 | 19.44° C | 52% | 1016.6 hPa | 0 mm | - | - | - |
| 1777905597 | 19.44° C | 51% | 1016.7 hPa | 0 mm | - | - | - |
| 1777905297 | 18.89° C | 51% | 1016.8 hPa | 0 mm | - | - | - |
| 1777904996 | 18.33° C | 52% | 1016.9 hPa | 0 mm | - | - | - |
| 1777904697 | 18.33° C | 52% | 1016.9 hPa | 0 mm | - | - | - |
| 1777904397 | 18.33° C | 54% | 1016.9 hPa | 0 mm | - | - | - |
| 1777904095 | 17.78° C | 55% | 1017 hPa | 0 mm | - | - | - |
| 1777903828 | 17.78° C | 54% | 1017 hPa | 0 mm | - | - | - |
| 1777903797 | 17.78° C | 54% | 1017 hPa | 0 mm | - | - | - |
| 1777903497 | 17.78° C | 57% | 1017 hPa | 0 mm | - | - | - |
| 1777903196 | 17.78° C | 58% | 1017.1 hPa | 0 mm | - | - | - |
| 1777902895 | 17.78° C | 57% | 1017.2 hPa | 0 mm | - | - | - |
| 1777902595 | 17.22° C | 59% | 1017.2 hPa | 0 mm | - | - | - |
| 1777902296 | 16.67° C | 60% | 1017.2 hPa | 0 mm | - | - | - |
| 1777901996 | 16.11° C | 60% | 1017.4 hPa | 0 mm | - | - | - |
| 1777901697 | 16.11° C | 63% | 1017.3 hPa | 0 mm | - | - | - |
| 1777901397 | 16.11° C | 61% | 1017.5 hPa | 0 mm | - | - | - |
| 1777901096 | 15.56° C | 61% | 1017.4 hPa | 0 mm | - | - | - |
* Rain latest hour (hover to see other rain measurements)
** Current wind speed in m/s (hover to see current wind gust speed)